Theta_e
266 267 267 268 268 268 268 268 269 269 269 268 268 268 267 267 267 267 267 266 266 267 267 268 269 269 269 269 269 269 270 271 272 272 273 274 275 275 276 277 278 280 283 283 283 283 283 283 283 283 283 283 282 282 283 283 283 283 284 284 284 285 285
266 266 266 267 267 267 268 268 268 268 268 268 267 267 267 267 267 266 266 266 266 265 265 266 267 267 268 268 269 269 269 269 270 270 271 272 272 273 274 276 277 278 280 281 281 282 282 281 282 281 281 281 281 281 282 282 282 282 282 282 283 283 283
265 265 265 266 267 267 267 267 267 268 268 268 267 266 266 266 266 266 266 265 265 265 265 265 265 265 266 267 268 268 268 268 268 269 269 269 270 271 272 274 275 276 277 278 279 280 280 280 280 280 279 279 280 280 280 280 280 280 280 281 281 282 281
265 265 265 265 266 266 266 267 267 267 268 267 267 266 266 266 265 265 265 265 265 264 264 264 264 264 265 265 266 266 267 267 267 267 268 268 268 269 271 272 274 275 275 276 277 278 279 279 279 278 277 277 278 278 278 277 277 278 278 279 279 280 280
264 264 264 264 265 265 266 266 266 267 267 267 266 266 265 265 265 264 264 264 264 264 264 263 263 263 264 264 264 265 265 266 266 266 266 267 267 268 269 271 272 273 274 275 276 277 278 278 278 277 276 275 276 277 276 275 276 276 276 277 277 279 279
263 263 263 264 264 265 265 265 266 266 266 266 266 265 265 264 264 264 263 263 264 264 263 263 263 263 263 264 264 264 265 265 265 265 265 266 266 267 268 269 270 271 272 273 275 275 276 276 276 275 274 274 274 275 274 274 274 275 275 275 275 277 278
262 262 262 263 263 264 265 265 265 266 266 266 266 265 265 264 263 263 263 263 263 263 263 262 262 262 262 263 263 264 264 265 265 264 265 265 265 266 267 268 269 270 271 271 273 274 274 274 274 273 273 273 273 273 273 273 273 273 274 274 275 276 277
261 261 262 262 262 263 264 265 265 265 265 265 265 265 264 264 263 263 262 262 262 262 262 262 262 262 262 262 263 263 264 265 265 264 264 265 265 266 266 267 267 268 269 270 271 272 272 272 272 272 271 271 270 271 271 271 272 272 273 274 274 275 276
260 260 261 261 262 262 263 264 264 264 265 265 266 265 264 263 263 262 262 262 262 261 261 261 261 262 262 262 262 263 263 264 265 264 264 264 264 265 266 266 266 267 268 269 269 270 271 271 271 270 270 269 268 268 269 269 270 271 272 272 273 274 275
259 259 259 260 261 261 261 262 263 263 264 265 266 264 263 263 262 262 261 261 261 261 261 261 261 261 261 261 261 262 262 263 264 264 263 263 264 264 265 265 265 266 266 267 268 269 269 269 269 269 268 267 267 267 267 267 269 270 270 270 271 272 273
259 259 259 259 259 260 260 261 261 262 263 265 265 264 263 262 262 261 261 261 260 260 260 260 260 260 260 261 261 261 261 262 263 263 263 263 263 263 264 264 264 265 265 265 266 267 267 266 266 266 266 265 266 265 266 266 267 268 268 268 269 270 270
258 259 258 258 258 259 259 260 260 260 262 263 264 264 263 261 261 260 260 260 260 259 259 259 259 260 260 260 260 260 260 261 261 262 263 262 262 262 263 263 263 264 264 264 264 264 264 264 263 264 264 264 264 264 264 265 265 266 266 266 267 267 268
258 258 258 258 258 258 258 259 259 259 261 262 263 264 263 261 260 260 260 260 259 259 259 259 259 259 259 259 259 259 259 259 260 261 262 262 262 261 262 262 262 262 263 263 263 262 262 262 262 262 263 263 263 263 263 264 264 264 265 265 265 265 266
257 258 257 257 257 257 257 258 258 258 260 261 262 263 262 260 259 259 259 259 259 259 259 258 259 259 259 259 259 259 259 259 260 261 261 261 261 261 261 261 261 262 262 262 262 262 261 261 261 261 262 262 262 263 263 263 263 263 264 264 264 264 265
257 257 257 257 257 257 257 257 257 257 259 260 261 262 261 259 258 259 259 258 258 258 258 258 258 259 258 258 258 258 258 259 260 261 261 261 261 261 261 261 261 262 262 261 262 261 261 261 261 261 262 262 262 263 263 263 263 263 263 263 263 264 265
256 256 256 257 257 256 256 256 256 256 257 258 260 261 260 258 258 258 258 258 258 258 258 258 258 258 258 258 258 258 258 259 260 261 260 260 261 261 261 260 261 261 261 261 262 261 261 261 261 261 262 262 263 263 263 263 262 262 262 262 262 263 265
255 255 256 256 256 256 255 255 256 256 256 257 259 259 259 257 257 257 257 257 257 257 257 257 258 258 258 258 258 258 258 259 260 260 260 260 261 261 261 260 260 260 261 260 260 260 260 260 260 260 261 261 262 262 262 261 261 261 262 261 262 262 263
254 255 255 255 255 255 255 255 255 255 255 256 258 258 258 257 256 256 256 256 256 256 256 257 257 257 258 258 258 258 258 259 260 260 260 260 260 260 260 259 259 260 260 259 259 259 259 259 259 259 259 260 260 260 260 260 260 261 261 261 261 262 263
254 254 254 254 254 254 254 254 255 255 255 256 257 257 257 256 256 255 255 255 255 255 255 256 256 257 257 258 258 258 258 258 259 260 260 259 259 259 259 259 258 258 258 258 258 258 258 258 258 258 259 259 260 260 260 260 260 261 261 260 261 261 262
253 253 253 253 253 254 254 254 254 254 255 255 256 256 256 255 254 254 254 254 254 254 254 255 255 256 256 257 257 257 257 258 259 260 259 258 259 259 258 257 257 257 257 257 257 257 257 257 258 258 258 259 260 260 260 260 260 260 260 260 260 260 260
252 252 253 253 253 254 254 254 254 254 255 255 255 255 256 255 253 253 254 254 254 254 254 254 254 255 255 256 256 256 256 257 259 259 257 257 258 258 257 256 256 256 257 257 256 257 257 257 257 257 258 259 259 259 260 260 260 260 259 259 259 259 259
252 252 253 253 253 254 254 254 254 254 255 255 255 255 255 254 253 253 253 253 253 253 253 253 253 254 254 255 255 255 256 257 258 257 256 256 257 257 256 255 255 256 256 256 256 256 256 256 257 257 258 258 258 259 259 259 259 259 258 258 259 259 259
252 252 253 253 253 253 253 254 254 254 254 254 254 254 254 254 253 253 253 253 252 252 252 253 253 253 254 254 255 255 256 256 256 255 255 255 256 256 255 255 255 255 255 255 256 256 256 256 256 257 257 257 257 258 258 258 258 258 258 258 258 259 259
252 252 253 253 253 253 253 253 253 254 254 254 253 253 253 253 253 253 253 252 252 252 252 252 253 253 254 254 254 255 255 255 254 254 254 254 255 254 254 254 254 254 255 255 255 255 255 256 256 256 257 257 257 257 257 256 257 257 258 258 258 258 258
252 252 252 252 252 252 252 252 253 253 253 253 253 253 253 253 252 252 252 252 252 252 253 253 253 254 254 254 254 254 254 253 253 253 253 254 254 254 254 254 254 254 255 255 255 255 255 255 256 256 256 256 256 256 256 256 256 257 257 257 257 258 258
252 252 251 251 251 251 251 251 252 252 252 252 253 253 252 252 251 251 251 251 251 252 253 253 253 253 253 253 253 253 253 253 253 253 253 254 254 254 254 254 254 254 254 254 254 254 254 255 255 255 255 255 255 255 255 256 256 256 256 256 256 257 257
251 251 251 251 250 250 250 250 251 251 252 252 252 252 252 251 251 251 250 251 251 251 252 252 252 252 252 252 252 252 253 253 253 253 253 253 254 254 254 254 254 253 253 253 254 254 254 254 254 255 255 255 255 255 255 255 255 255 255 255 255 255 255
250 250 250 250 250 250 250 250 250 250 251 251 252 252 251 251 251 250 250 250 251 251 251 251 251 251 251 251 252 252 253 253 253 253 253 253 253 253 253 253 253 253 253 253 253 254 254 254 254 254 254 254 254 254 254 254 254 254 254 255 255 255 255
250 250 250 250 250 249 249 249 249 250 250 251 251 251 251 251 251 250 250 250 251 251 251 251 251 251 251 251 251 252 253 253 253 253 253 253 253 253 253 253 253 253 253 253 253 253 253 253 253 253 253 253 253 253 254 254 254 254 254 254 254 254 254
250 250 250 250 250 250 249 249 249 250 250 250 250 250 250 251 251 250 250 250 250 251 251 250 250 250 250 251 251 252 252 253 253 253 253 253 253 253 253 253 253 253 253 253 253 253 253 253 253 252 253 253 253 253 253 253 253 253 253 253 253 253 254
251 251 251 250 250 250 250 249 249 249 250 250 250 250 250 250 250 250 250 250 250 250 250 250 250 250 250 250 251 251 252 252 253 252 252 252 252 252 252 252 252 252 252 252 252 252 252 252 252 252 252 252 252 252 252 252 252 252 252 252 253 253 253
250 250 250 250 250 250 250 250 250 250 250 250 250 250 250 250 250 250 249 249 250 249 249 249 249 249 250 250 250 251 252 252 252 252 252 252 252 252 252 252 252 252 252 252 252 252 252 251 251 251 251 252 252 252 252 252 252 252 252 252 252 252 253
250 250 250 250 250 250 250 250 250 250 250 249 249 249 249 249 249 249 249 249 249 249 249 249 249 249 249 250 250 251 251 252 252 251 251 251 251 251 251 251 251 251 251 251 251 251 251 251 250 251 251 251 251 251 251 251 251 251 251 251 252 252 252
249 249 249 250 250 250 250 250 250 249 249 249 249 249 248 248 248 248 248 248 248 249 249 249 249 249 249 250 250 251 251 251 251 251 251 251 251 251 251 251 251 251 251 251 250 250 250 250 250 250 250 250 251 251 250 250 250 250 251 251 251 251 251
249 249 249 249 249 249 249 249 249 249 249 249 248 248 248 248 248 248 248 248 248 248 248 249 249 249 249 250 250 250 250 251 251 250 250 250 250 250 250 250 250 250 250 250 250 250 250 250 250 250 250 250 250 250 250 250 250 250 250 250 250 250 251
248 249 249 249 249 249 249 249 249 249 249 249 248 248 248 248 248 247 247 247 247 248 248 249 249 250 250 250 250 250 250 250 250 250 250 250 250 250 250 250 250 250 250 250 250 250 250 250 249 249 249 249 249 249 249 249 249 249 249 249 250 250 250
Wind_Speed
21 21 22 23 24 24 22 21 20 19 21 25 26 25 25 25 26 28 29 28 28 27 26 25 25 25 24 24 25 26 27 25 24 24 23 21 20 20 20 20 17 8 3 7 10 10 12 10 9 10 11 11 13 13 12 12 11 11 11 11 10 10 10
22 20 20 21 23 23 22 20 20 19 18 21 23 24 25 25 26 27 28 28 28 28 27 26 26 25 24 23 23 24 26 27 26 25 25 24 21 21 21 19 17 13 7 8 11 11 12 12 11 12 13 12 12 12 11 11 12 12 13 12 11 11 11
22 21 19 20 21 23 22 20 19 18 17 17 21 23 24 25 25 25 25 25 26 26 26 26 26 26 25 23 23 23 24 26 26 24 25 25 23 21 21 20 17 15 10 10 11 12 12 13 11 12 14 12 11 12 12 12 12 12 13 13 12 11 12
21 21 20 19 20 21 22 20 18 17 15 15 18 22 23 24 24 23 23 22 22 23 24 24 24 24 24 24 24 25 25 25 25 24 24 25 25 23 21 20 18 16 14 11 11 12 13 12 10 11 16 15 11 12 13 13 13 13 13 13 13 12 12
22 21 20 19 18 20 21 20 19 17 14 13 17 20 21 22 22 22 22 21 19 20 22 22 21 21 22 23 24 24 24 24 24 23 23 24 24 24 22 20 18 17 17 14 12 13 13 11 10 10 15 17 14 13 15 14 13 13 13 14 14 12 11
22 21 20 18 17 17 18 20 19 18 14 11 16 19 19 20 21 21 22 22 18 17 18 19 19 19 19 19 21 22 21 23 23 21 21 22 22 23 22 20 19 18 18 16 13 13 13 13 12 12 14 17 16 14 17 19 16 15 15 16 16 12 10
22 21 20 18 16 15 15 17 19 20 15 10 13 18 18 19 20 20 21 22 19 15 15 17 17 17 18 17 17 18 19 20 21 19 20 20 20 21 22 21 19 18 17 16 15 14 14 13 14 15 15 17 15 13 17 21 20 18 18 18 17 13 10
22 21 19 19 18 15 14 13 16 21 21 13 12 16 17 16 19 21 21 22 20 17 15 15 15 15 16 15 14 15 15 16 18 18 18 19 19 19 20 19 18 17 16 16 15 14 14 13 14 16 16 17 18 17 18 20 18 16 18 18 15 11 10
21 21 20 19 19 17 15 14 13 18 24 19 14 14 15 14 17 21 21 21 21 19 16 15 15 14 14 14 12 12 11 11 13 15 16 17 18 18 18 17 17 16 15 14 13 12 12 12 13 15 15 17 19 17 17 19 17 14 16 16 13 10 9
21 21 21 21 21 19 17 17 15 15 20 21 16 14 14 14 17 20 19 19 20 19 18 16 15 13 13 13 13 12 10 8 9 12 14 14 15 16 16 15 15 14 14 13 12 11 11 10 10 13 14 13 15 14 16 19 18 15 16 17 15 12 9
20 21 22 22 23 22 20 20 19 16 19 22 20 16 14 14 18 19 17 17 18 18 18 17 16 15 13 14 15 14 12 9 8 10 12 13 14 13 12 14 13 13 13 13 12 11 11 10 10 11 12 12 13 14 16 17 15 15 15 15 14 12 13
19 20 21 22 24 24 22 21 20 18 19 22 21 19 16 15 19 19 16 16 16 16 17 17 17 16 15 14 15 16 15 12 9 10 11 13 14 13 10 10 11 11 12 11 10 10 11 12 12 11 12 13 14 14 15 14 13 13 13 13 12 11 16
18 19 21 22 23 25 24 24 22 20 20 22 22 20 17 17 20 19 15 14 15 16 17 16 16 16 16 16 16 16 17 15 12 12 13 13 14 14 11 9 9 8 9 9 8 8 9 11 12 12 12 13 14 15 15 14 14 14 14 15 14 15 21
19 20 20 21 21 24 25 26 24 22 21 22 21 20 18 18 20 18 13 12 14 15 16 15 14 15 17 18 18 17 17 15 14 15 16 14 14 14 13 11 10 8 7 8 8 8 9 10 12 13 14 15 14 15 15 15 17 17 17 19 20 22 23
20 20 20 20 21 22 24 26 26 24 22 22 21 20 20 19 19 16 12 12 13 14 15 15 13 14 17 19 19 18 15 14 16 18 17 14 14 14 13 11 9 7 7 8 7 8 10 11 13 14 15 16 16 15 16 16 17 18 19 23 24 22 20
21 21 21 20 20 22 24 26 27 24 22 22 21 21 21 20 17 14 14 14 13 13 14 14 13 14 16 18 20 18 14 15 18 18 16 16 17 15 12 11 7 6 7 8 7 8 10 12 15 15 15 16 15 15 16 15 16 18 19 20 20 18 17
23 21 20 21 22 24 25 26 26 24 22 22 21 21 21 20 16 14 14 15 15 14 14 13 13 14 15 18 19 18 15 16 18 19 19 19 17 13 10 10 7 7 8 8 7 9 12 16 17 15 14 13 12 12 13 13 14 16 15 15 14 12 14
22 20 21 23 25 26 25 25 25 23 21 21 20 20 20 19 16 14 14 16 17 16 14 13 14 14 15 16 16 15 16 18 19 19 17 13 9 8 8 8 7 7 9 11 12 14 18 20 18 15 13 12 10 8 8 9 11 11 11 13 12 11 14
21 22 24 25 25 24 22 24 24 23 21 20 19 19 19 18 16 14 14 16 18 18 17 15 15 14 13 14 14 14 17 19 20 18 12 7 8 9 9 9 9 10 12 15 17 19 21 20 17 14 13 11 9 8 7 6 7 7 8 11 13 13 13
22 24 25 24 23 20 20 22 23 22 20 18 18 18 18 18 17 15 15 15 17 20 21 18 15 14 13 14 13 15 18 20 20 17 10 6 8 10 10 11 13 13 15 18 20 21 20 17 15 14 12 9 8 8 7 5 5 6 8 10 13 13 12
24 25 25 23 21 20 20 21 21 21 19 17 17 17 17 18 17 16 15 16 17 19 22 21 18 16 15 14 14 16 18 19 19 17 13 8 8 11 12 13 15 17 19 20 20 19 17 15 15 14 11 8 7 7 7 7 8 9 11 12 13 14 15
24 24 25 23 21 21 21 21 20 20 19 17 16 15 16 17 17 15 15 17 17 18 20 22 22 20 17 16 16 17 19 19 18 18 17 14 13 13 14 15 18 20 20 20 18 16 15 14 15 13 10 8 8 8 9 11 13 13 12 11 12 13 15
23 23 23 23 22 21 20 20 19 18 18 17 16 16 16 16 15 14 15 16 17 18 19 21 21 20 19 18 18 19 20 19 18 18 18 17 15 15 15 17 19 18 16 15 15 15 15 15 14 13 11 10 10 10 12 14 14 12 10 9 10 11 13
22 22 22 22 22 22 21 19 18 17 18 19 18 17 15 14 13 14 15 16 17 18 19 19 19 19 20 20 20 20 19 18 18 18 18 17 17 17 16 17 16 13 12 13 13 14 15 15 13 13 12 11 12 13 14 14 12 10 10 11 11 12 13
22 22 22 22 23 23 22 20 19 19 19 18 17 15 12 11 13 15 16 17 18 18 18 18 17 17 18 19 19 19 19 20 21 20 19 18 17 17 16 15 13 12 12 12 12 12 13 14 13 13 13 13 14 16 14 13 12 12 12 12 12 12 13
22 22 23 23 23 23 23 22 21 20 18 16 15 14 13 13 16 19 19 18 17 17 16 16 15 16 17 19 20 21 22 23 23 20 18 17 16 15 14 13 12 12 13 13 13 14 14 14 14 14 14 14 15 14 13 12 13 14 14 13 14 14 15
23 23 23 23 23 24 25 24 22 20 17 16 16 16 17 18 22 24 23 20 18 17 18 18 19 20 21 22 22 21 21 21 20 18 17 16 15 15 14 15 14 14 14 15 15 15 15 15 13 13 13 13 13 13 12 12 13 14 14 14 15 16 17
25 25 24 24 25 25 26 25 24 21 19 17 17 19 21 23 25 26 24 22 21 20 21 21 22 23 23 22 20 19 19 19 18 17 17 17 16 16 16 16 15 14 13 14 15 14 13 12 12 12 12 12 13 13 12 12 13 14 14 15 16 17 18
26 26 26 26 26 25 25 27 28 25 21 19 21 23 25 26 26 25 24 23 22 22 23 23 23 23 22 21 20 19 19 18 18 17 17 17 17 17 16 16 15 14 14 14 14 13 12 11 11 12 13 13 13 13 12 12 13 14 14 15 16 17 18
26 28 28 28 28 28 27 29 30 28 25 24 24 25 25 25 24 23 24 24 23 22 23 23 22 22 21 20 21 21 19 18 18 17 17 17 17 17 16 16 16 15 15 14 14 14 13 12 12 12 13 13 14 13 13 13 13 14 15 16 16 18 18
26 27 27 28 30 31 30 30 30 28 26 25 24 24 23 24 24 24 24 23 22 23 23 22 22 23 22 21 21 21 20 19 18 18 18 18 17 17 16 16 16 16 15 15 15 15 14 13 13 14 14 14 14 14 14 14 14 15 15 15 16 17 18
26 27 27 27 28 29 30 31 30 28 26 25 25 24 24 24 24 24 23 21 21 23 24 24 22 23 23 23 22 22 21 19 19 19 19 18 18 18 18 17 16 15 15 15 15 15 16 17 17 16 15 15 14 14 14 15 15 15 15 15 16 17 17
25 25 26 26 26 27 29 30 30 28 27 27 26 25 25 24 24 24 22 21 21 23 25 25 24 24 24 24 24 23 22 20 20 21 20 20 20 20 20 18 16 16 17 18 17 17 18 18 17 15 15 15 14 14 14 14 15 15 15 15 16 16 17
25 23 23 24 25 26 26 27 27 27 27 27 26 26 25 25 25 25 23 21 22 24 26 25 25 25 25 24 24 24 23 22 23 22 22 22 21 21 20 19 18 18 19 19 18 17 16 15 14 14 14 14 14 13 14 14 15 15 15 15 16 17 17
29 27 24 24 25 25 25 25 26 27 27 26 27 26 25 24 25 27 26 25 24 25 26 26 26 26 26 25 25 25 25 24 23 23 22 22 22 21 21 21 20 20 19 19 17 17 16 16 15 15 15 15 15 15 15 16 16 16 16 17 17 18 18
32 30 28 26 26 25 25 25 26 26 26 25 25 23 22 23 26 27 27 27 26 25 25 25 26 26 26 26 26 26 25 25 24 24 24 23 23 23 22 22 22 21 20 19 18 18 18 18 17 17 16 16 16 16 16 17 17 16 16 16 16 17 17
Wind_Direction
11 13 15 18 20 21 20 21 26 22 11 11 18 21 18 18 19 21 22 22 24 25 25 26 26 25 26 25 25 24 21 23 25 21 20 20 14 10 14 16 8 355 20 43 40 44 41 34 30 36 41 38 35 38 41 37 34 33 32 31 31 32 35
7 8 9 13 17 19 19 19 21 23 15 9 15 19 18 18 18 17 18 19 20 21 21 23 24 22 22 24 25 25 22 20 21 17 13 16 15 9 12 15 8 359 351 355 6 22 29 25 25 31 35 36 32 29 32 34 31 29 31 32 32 33 33
4 5 6 9 14 17 18 18 19 21 16 8 12 17 16 16 18 16 14 13 14 18 19 19 21 21 19 20 23 26 23 20 20 17 10 11 15 12 12 14 8 2 355 342 348 6 15 17 20 20 19 25 30 22 18 23 26 23 25 28 27 27 27
1 2 3 4 9 14 18 18 17 20 17 5 6 12 12 12 15 16 15 11 7 10 16 18 18 19 18 18 20 24 24 19 18 18 11 8 11 12 12 12 7 1 358 348 343 354 5 14 22 20 16 18 26 24 15 16 21 22 22 24 27 25 16
358 358 359 360 2 7 14 18 16 16 16 2 357 5 7 7 11 13 14 14 7 3 9 15 16 16 19 20 18 20 22 18 15 16 12 7 7 8 9 11 8 1 359 357 348 348 359 14 27 28 23 22 27 25 14 10 19 27 22 18 26 27 7
355 355 355 355 356 359 8 18 18 14 12 356 349 357 2 2 7 10 8 10 10 2 360 6 11 13 18 22 19 17 20 18 14 13 12 7 6 8 7 7 8 4 1 0 356 355 4 15 25 31 25 21 24 27 18 9 9 18 22 17 19 19 0
350 351 350 350 351 349 357 13 19 17 14 355 341 349 355 358 3 6 3 3 6 5 358 360 5 8 12 18 20 15 16 18 12 10 12 8 5 9 7 4 5 4 2 2 1 3 7 10 19 25 18 11 13 20 20 14 4 3 9 12 13 10 354
344 346 346 346 347 342 343 357 11 16 14 354 329 341 350 353 358 360 358 356 359 2 0 358 1 4 3 9 16 13 14 18 10 5 10 9 7 10 8 2 1 360 360 2 2 5 8 10 16 17 11 9 13 11 9 8 2 352 354 1 7 7 0
337 343 343 341 343 339 337 338 343 4 9 352 325 334 345 347 351 354 353 351 353 358 360 357 358 1 358 359 9 10 12 21 15 6 8 9 9 10 7 3 1 359 357 356 358 3 10 15 17 17 15 14 16 11 358 357 358 350 349 353 353 356 3
331 337 339 338 340 337 336 334 328 341 357 351 335 333 341 343 348 351 350 347 347 352 356 354 354 358 355 354 1 3 2 11 14 8 4 5 8 8 5 4 3 0 358 354 352 360 15 22 17 19 24 17 9 5 356 357 359 351 350 353 346 343 346
328 330 332 333 336 336 335 335 331 330 340 344 340 336 339 346 349 350 349 345 345 348 351 350 351 353 352 351 353 353 352 351 356 2 360 356 359 2 2 4 5 4 3 360 357 5 20 26 10 8 19 14 3 359 355 356 355 349 352 355 346 334 327
326 323 325 327 329 332 333 333 334 335 335 337 338 335 335 342 347 349 347 342 343 344 345 346 346 344 346 347 344 344 348 348 348 357 355 345 347 354 357 356 358 6 9 5 4 8 17 18 4 356 4 5 357 351 349 349 348 347 345 342 338 324 316
324 319 321 323 324 326 329 330 334 338 335 333 335 333 333 339 345 347 342 339 340 339 339 343 339 334 337 340 338 342 347 346 346 354 353 340 336 344 350 341 334 347 5 8 5 360 2 5 357 346 345 348 344 339 339 336 334 333 329 324 321 311 311
321 318 318 320 320 321 323 326 331 336 333 331 332 331 333 341 344 341 335 333 336 333 334 340 335 326 328 332 335 340 343 343 346 349 345 334 327 331 337 338 333 332 347 1 2 349 342 342 340 334 330 330 327 323 322 320 317 316 314 311 308 307 311
317 317 316 317 317 318 318 320 326 330 328 329 330 328 332 339 339 335 328 327 330 330 330 333 329 321 321 324 328 334 339 340 342 339 332 326 323 321 323 331 336 331 335 347 346 335 333 332 330 329 323 318 316 311 306 303 300 298 298 301 303 308 313
316 316 315 314 314 315 314 315 319 323 324 327 328 326 330 336 335 329 323 322 325 325 322 322 322 319 317 317 320 328 335 336 334 331 325 322 319 312 311 321 320 303 317 333 328 322 328 328 325 321 315 310 309 305 299 293 289 289 292 298 302 305 308
315 314 311 310 310 311 311 311 314 317 318 323 326 326 329 333 331 324 317 314 316 318 318 317 318 316 314 314 317 322 325 328 330 328 325 322 315 306 308 317 305 283 296 314 317 317 322 324 325 321 316 314 309 301 295 288 288 292 298 302 303 299 302
312 308 304 304 307 309 309 309 311 313 314 318 323 326 328 330 328 321 313 310 311 314 315 312 311 312 311 311 315 317 319 324 329 328 327 328 326 321 324 324 311 295 299 306 311 316 320 325 330 331 328 329 325 318 311 300 300 307 308 302 298 297 303
306 301 301 304 309 311 309 308 311 312 310 313 319 324 328 329 326 319 314 311 308 307 309 310 310 311 310 310 312 314 317 323 325 325 327 338 340 336 333 325 316 310 313 316 317 319 323 328 332 332 332 334 335 337 336 322 314 316 312 307 305 306 311
302 301 305 309 313 314 311 309 311 312 309 309 314 321 326 326 324 321 316 313 309 306 307 309 309 307 306 308 310 313 316 319 320 325 337 348 338 337 337 325 312 308 313 318 318 319 323 326 327 327 330 333 330 326 319 299 280 282 296 308 308 304 305
303 303 306 310 312 311 310 310 311 311 308 306 308 315 321 322 323 323 318 313 309 304 302 304 304 304 305 306 306 312 316 315 314 324 337 336 320 324 330 322 311 307 310 312 313 316 318 318 321 326 331 327 316 309 299 281 276 286 293 296 295 293 296
304 303 303 306 308 306 306 307 307 307 306 306 306 309 315 318 321 321 316 312 309 304 301 301 301 301 303 304 305 308 312 312 313 318 322 318 309 314 322 317 309 309 310 309 309 311 311 312 318 324 325 317 307 297 290 288 292 300 301 292 285 283 285
304 303 303 304 305 305 305 305 304 303 302 302 304 306 310 314 316 318 316 313 310 306 303 303 303 303 304 305 306 307 308 310 311 311 311 309 307 310 315 311 307 308 308 306 306 305 304 310 317 318 316 317 311 298 293 297 304 314 319 309 301 297 292
304 304 304 305 306 306 307 307 305 300 297 299 301 303 305 308 314 320 321 315 310 307 306 305 304 304 304 304 305 306 306 306 306 306 306 306 305 306 308 308 308 309 305 302 299 298 300 305 309 309 310 312 311 306 305 311 319 325 324 313 302 301 300
303 303 303 304 305 306 308 308 305 302 301 302 302 301 301 305 314 322 323 316 311 308 305 302 299 298 302 304 305 305 304 302 302 303 302 302 302 303 304 307 308 305 300 298 295 293 295 296 297 301 301 299 303 307 311 319 324 320 317 312 303 297 293
300 301 301 302 302 304 306 306 305 304 305 307 304 295 290 294 304 314 320 317 311 308 305 305 303 301 301 303 302 300 298 298 301 301 298 298 299 300 300 300 298 295 294 294 291 287 285 285 288 293 293 293 299 306 310 318 320 318 316 316 314 310 303
297 297 297 298 300 301 303 304 304 304 304 305 302 295 292 297 304 310 315 315 310 306 305 305 303 300 299 299 298 295 293 293 296 297 296 297 298 297 294 291 290 290 291 289 287 286 287 288 287 288 290 295 302 305 306 310 313 315 317 316 316 317 313
293 292 292 293 296 299 301 300 298 297 298 300 300 300 302 305 306 308 310 310 307 305 303 301 299 297 298 298 296 292 289 289 289 290 292 294 293 292 292 291 291 291 289 287 287 290 290 288 285 287 292 298 302 301 300 303 306 309 312 315 317 317 313
288 288 289 289 290 291 293 292 293 294 295 294 294 296 299 300 301 302 303 303 303 302 300 298 297 296 296 295 293 289 286 284 283 283 285 286 287 287 289 290 290 288 285 285 287 286 283 281 284 290 293 295 296 296 295 298 301 304 308 312 312 309 306
282 284 285 285 285 285 283 284 287 291 292 291 292 293 293 293 293 294 296 298 299 298 295 293 292 291 290 289 287 286 283 281 279 279 280 281 281 281 281 281 282 283 282 281 280 277 275 277 283 289 291 290 292 293 292 292 295 298 303 306 303 301 302
282 282 280 277 279 282 282 282 284 287 288 289 291 292 291 290 289 289 290 294 296 294 290 287 285 284 284 283 281 280 279 278 276 277 279 280 279 277 274 273 276 279 278 275 271 267 266 271 281 286 286 285 287 288 289 290 293 296 298 299 298 299 301
286 284 281 277 275 277 280 283 285 286 286 286 288 289 288 287 286 285 285 288 288 284 281 280 278 278 278 277 276 275 275 274 273 274 277 278 278 275 272 271 273 276 276 273 268 264 266 274 282 282 277 276 280 284 286 288 290 293 295 294 295 295 295
285 284 283 281 277 275 276 280 283 283 284 285 285 285 286 285 282 281 281 281 278 275 273 274 273 272 272 272 272 272 272 272 272 274 276 276 276 275 273 272 271 271 272 273 272 272 274 278 278 274 270 272 275 276 279 284 286 288 291 291 291 292 292
291 287 285 283 282 279 277 278 280 281 283 284 285 285 287 286 284 281 277 273 270 268 268 268 267 267 267 268 268 269 271 273 274 275 275 274 273 272 271 272 271 269 269 270 271 273 273 272 269 267 267 270 270 268 272 278 280 282 285 288 289 291 290
295 294 290 287 285 283 280 279 282 284 284 283 283 286 288 286 282 279 276 272 268 265 264 263 263 263 263 264 265 267 270 272 272 273 272 272 271 270 269 270 271 270 267 266 265 265 264 263 262 262 263 265 267 268 270 273 274 275 280 283 285 286 288
293 294 293 289 286 283 281 281 283 285 283 280 279 281 282 280 276 275 274 273 271 267 264 262 260 260 260 261 262 263 265 267 268 269 269 269 268 268 267 268 269 267 265 262 261 261 262 261 260 260 261 263 263 263 265 268 271 274 278 280 279 281 283